Savanna, IA

2:58 PM CDT on April 30, 2017 (GMT -0500)
Tri-Township

Weather History for KSFY - September, 2013

Change the Weather History Date:

Wednesday, September 25, 2013

  Actual Average (KCWI) Record (KCWI)
Temperature  
Mean Temperature 64 °F -  
Max Temperature 78 °F 71 °F 88 °F (1986)
Min Temperature 49 °F 49 °F 33 °F (2001)
Degree Days  
Heating Degree Days 2    
Growing Degree Days 14 (Base 50)    
Moisture  
Dew Point 48 °F    
Average Humidity 67    
Maximum Humidity 94    
Minimum Humidity 30    
Precipitation  
Precipitation 0.00 in - - ()
Sea Level Pressure  
Sea Level Pressure 29.94 in    
Wind  
Wind Speed 4 mph (ENE)    
Max Wind Speed 10 mph    
Max Gust Speed -    
Visibility 9 miles    
Events      
Averages and records for this station are not official NWS values.
T = Trace of Precipitation, MM = Missing Value Source: NWS Daily Summary

Daily Weather History Graph

Daily Weather History Graph

Search for Another Location

Airport or City:

Trip Planner

Search our weather history database for the weather conditions in past years. The results will help you decide how hot, cold, wet, or windy it might be!

Date:

Astronomy

Sep. 25, 2013 Rise Set
Actual Time 6:51 AM CDT 6:51 PM CDT
Civil Twilight 6:23 AM CDT 7:19 PM CDT
Nautical Twilight 5:50 AM CDT 7:52 PM CDT
Astronomical Twilight 5:17 AM CDT 8:25 PM CDT
Moon 10:53 PM CDT (9/25) 1:02 PM CDT (9/25)
Length of Visible Light 12h 56m
Length of Day
12h 00m
Waning Gibbous, 64% of the Moon is Illuminated
Sep 25
Waning Gibbous
Sep 26
Last Quarter
Oct 4
New
Oct 11
First Quarter
Oct 18
Full

Hourly Weather History & Observations

Time (CDT) Temp. Dew Point Humidity Pressure Visibility Wind Dir Wind Speed Gust Speed Precip Events Conditions
12:15 AM 53.4 °F 48.6 °F 84% 29.96 in 10.0 mi NE 5.8 mph - N/A   Clear
12:35 AM 53.1 °F 48.6 °F 85% 29.96 in 10.0 mi NE 4.6 mph - N/A   Clear
12:55 AM 52.9 °F 48.6 °F 85% 29.96 in 10.0 mi NE 4.6 mph - N/A   Clear
1:15 AM 52.7 °F 48.4 °F 85% 29.96 in 10.0 mi NE 4.6 mph - N/A   Clear
1:35 AM 52.2 °F 48.4 °F 87% 29.95 in 10.0 mi NE 5.8 mph - N/A   Clear
1:55 AM 52.3 °F 48.6 °F 87% 29.95 in 10.0 mi ENE 6.9 mph - N/A   Clear
2:15 AM 51.8 °F 48.2 °F 88% 29.95 in 10.0 mi NE 4.6 mph - N/A   Clear
2:35 AM 51.1 °F 48.2 °F 90% 29.94 in 10.0 mi NE 4.6 mph - N/A   Clear
2:55 AM 51.4 °F 48.6 °F 90% 29.94 in 10.0 mi Calm Calm - N/A   Clear
3:15 AM 51.3 °F 48.4 °F 90% 29.94 in 10.0 mi Calm Calm - N/A   Clear
3:35 AM 51.3 °F 48.7 °F 91% 29.94 in 10.0 mi Calm Calm - N/A   Clear
3:55 AM 51.6 °F 49.1 °F 91% 29.94 in 10.0 mi Calm Calm - N/A   Clear
4:15 AM 51.1 °F 48.4 °F 90% 29.94 in 10.0 mi North 4.6 mph - N/A   Clear
4:35 AM 50.4 °F 48.0 °F 92% 29.94 in 7.0 mi North 3.5 mph - N/A   Clear
4:55 AM 50.2 °F 47.8 °F 92% 29.94 in 7.0 mi North 4.6 mph - N/A   Clear
5:15 AM 50.0 °F 47.7 °F 92% 29.94 in 7.0 mi NNE 4.6 mph - N/A   Clear
5:35 AM 50.4 °F 48.2 °F 92% 29.94 in 7.0 mi NNE 4.6 mph - N/A   Clear
5:55 AM 50.4 °F 48.2 °F 92% 29.95 in 7.0 mi North 4.6 mph - N/A   Clear
6:15 AM 50.2 °F 47.8 °F 92% 29.95 in 7.0 mi North 3.5 mph - N/A   Clear
6:35 AM 50.0 °F 47.8 °F 92% 29.96 in 7.0 mi Calm Calm - N/A   Clear
6:55 AM 49.3 °F 47.3 °F 93% 29.96 in 4.0 mi North 3.5 mph - N/A   Clear
7:15 AM 49.5 °F 47.5 °F 93% 29.97 in 4.0 mi NNE 3.5 mph - N/A   Clear
7:35 AM 50.9 °F 49.1 °F 94% 29.97 in 4.0 mi NNE 4.6 mph - N/A   Clear
7:55 AM 52.2 °F 50.0 °F 92% 29.97 in 4.0 mi NNE 4.6 mph - N/A   Clear
8:15 AM 53.6 °F 50.9 °F 91% 29.97 in 4.0 mi Calm Calm - N/A   Clear
8:35 AM 55.2 °F 51.6 °F 88% 29.97 in 5.0 mi NNE 3.5 mph - N/A   Clear
8:55 AM 57.2 °F 52.7 °F 85% 29.97 in 7.0 mi NNE 4.6 mph - N/A   Clear
9:15 AM 58.6 °F 52.7 °F 81% 29.98 in 7.0 mi Calm Calm - N/A   Clear
9:35 AM 61.2 °F 53.1 °F 75% 29.98 in 7.0 mi ENE 3.5 mph - N/A   Clear
9:55 AM 63.9 °F 52.2 °F 66% 29.97 in 10.0 mi ENE 3.5 mph - N/A   Clear
10:15 AM 66.2 °F 52.2 °F 61% 29.97 in 10.0 mi ENE 4.6 mph - N/A   Clear
10:35 AM 67.8 °F 51.1 °F 55% 29.97 in 10.0 mi ENE 4.6 mph - N/A   Clear
10:55 AM 70.0 °F 50.0 °F 49% 29.97 in 10.0 mi ENE 5.8 mph - N/A   Clear
11:15 AM 70.9 °F 50.4 °F 48% 29.97 in 10.0 mi East 5.8 mph - N/A   Clear
11:35 AM 72.5 °F 48.2 °F 42% 29.97 in 10.0 mi East 10.4 mph - N/A   Clear
11:55 AM 72.7 °F 47.7 °F 41% 29.97 in 10.0 mi ESE 6.9 mph - N/A   Clear
12:15 PM 73.8 °F 47.3 °F 39% 29.96 in 10.0 mi East 4.6 mph - N/A   Clear
12:35 PM 74.3 °F 48.0 °F 39% 29.96 in 10.0 mi ENE 3.5 mph - N/A   Clear
1:15 PM 75.4 °F 46.9 °F 36% 29.94 in 10.0 mi ENE 3.5 mph - N/A   Clear
1:55 PM 76.3 °F 45.7 °F 34% 29.93 in 10.0 mi East 4.6 mph - N/A   Clear
2:15 PM 77.2 °F 46.0 °F 33% 29.93 in 10.0 mi SE 5.8 mph - N/A   Clear
2:35 PM 76.5 °F 46.0 °F 34% 29.92 in 10.0 mi SSE 3.5 mph - N/A   Clear
2:55 PM 77.0 °F 45.5 °F 33% 29.92 in 10.0 mi ENE 5.8 mph - N/A   Clear
3:15 PM 77.4 °F 45.7 °F 32% 29.92 in 10.0 mi East 3.5 mph - N/A   Clear
3:35 PM 78.1 °F 45.7 °F 32% 29.91 in 10.0 mi ENE 4.6 mph - N/A   Clear
3:55 PM 77.9 °F 44.6 °F 31% 29.91 in 10.0 mi ENE 3.5 mph - N/A   Clear
4:15 PM 78.1 °F 45.1 °F 31% 29.90 in 10.0 mi ESE 5.8 mph - N/A   Clear
4:35 PM 78.1 °F 44.6 °F 30% 29.91 in 10.0 mi East 5.8 mph - N/A   Clear
4:55 PM 77.5 °F 45.0 °F 31% 29.91 in 10.0 mi East 3.5 mph - N/A   Clear
5:15 PM 77.2 °F 45.0 °F 32% 29.91 in 10.0 mi ESE 4.6 mph - N/A   Clear
5:35 PM 76.6 °F 45.7 °F 33% 29.91 in 10.0 mi East 5.8 mph - N/A   Clear
5:55 PM 75.2 °F 45.9 °F 35% 29.91 in 10.0 mi East 4.6 mph - N/A   Clear
6:15 PM 73.4 °F 46.0 °F 38% 29.92 in 10.0 mi East 4.6 mph - N/A   Clear
6:35 PM 70.0 °F 47.7 °F 45% 29.92 in 10.0 mi East 4.6 mph - N/A   Clear
6:55 PM 67.5 °F 48.0 °F 50% 29.92 in 10.0 mi ENE 3.5 mph - N/A   Clear
7:15 PM 63.1 °F 48.9 °F 60% 29.92 in 10.0 mi ENE 6.9 mph - N/A   Clear
7:35 PM 61.7 °F 49.1 °F 63% 29.92 in 10.0 mi ENE 5.8 mph - N/A   Clear
7:55 PM 59.7 °F 49.3 °F 68% 29.92 in 7.0 mi ENE 6.9 mph - N/A   Clear
8:15 PM 59.0 °F 49.3 °F 70% 29.93 in 10.0 mi ENE 5.8 mph - N/A   Clear
8:35 PM 60.1 °F 49.6 °F 68% 29.94 in 10.0 mi East 6.9 mph - N/A   Clear
8:55 PM 60.6 °F 49.5 °F 67% 29.94 in 10.0 mi East 6.9 mph - N/A   Clear
9:15 PM 60.3 °F 49.3 °F 67% 29.94 in 10.0 mi East 9.2 mph - N/A   Clear
9:35 PM 60.3 °F 49.1 °F 67% 29.94 in 10.0 mi East 9.2 mph - N/A   Clear
9:55 PM 59.9 °F 49.5 °F 68% 29.94 in 10.0 mi East 9.2 mph - N/A   Clear
10:15 PM 59.0 °F 49.5 °F 71% 29.95 in 10.0 mi East 6.9 mph - N/A   Clear
10:35 PM 57.2 °F 49.5 °F 75% 29.96 in 10.0 mi Calm Calm - N/A   Clear
10:55 PM 56.3 °F 49.6 °F 78% 29.95 in 10.0 mi ENE 3.5 mph - N/A   Clear
11:15 PM 55.9 °F 50.0 °F 80% 29.96 in 10.0 mi ENE 5.8 mph - N/A   Clear
11:35 PM 55.8 °F 50.0 °F 81% 29.96 in 10.0 mi Calm Calm - N/A   Clear
11:55 PM 55.2 °F 49.6 °F 81% 29.96 in 10.0 mi East 5.8 mph - N/A   Clear